Weather History for K9D7 - March, 2012

Change the Weather History Date:

Saturday, March 31, 2012

  Actual Average (KDVL) Record (KDVL)
Temperature  
Mean Temperature 52 °F -  
Max Temperature 64 °F 41 °F 71 °F (1963)
Min Temperature 41 °F 20 °F -5 °F (1969)
Degree Days  
Heating Degree Days 12    
Growing Degree Days 2 (Base 50)    
Moisture  
Dew Point 40 °F    
Average Humidity 67    
Maximum Humidity 100    
Minimum Humidity 34    
Precipitation  
Precipitation 0.00 in - - ()
Sea Level Pressure  
Sea Level Pressure 29.61 in    
Wind  
Wind Speed 13 mph (WSW)    
Max Wind Speed 22 mph    
Max Gust Speed 29 mph    
Visibility 10 miles    
Events      
Averages and records for this station are not official NWS values.
T = Trace of Precipitation, MM = Missing Value Source: NWS Daily Summary

Daily Weather History Graph

Daily Weather History Graph

Search for Another Location

Airport or City:

Trip Planner

Search our weather history database for the weather conditions in past years. The results will help you decide how hot, cold, wet, or windy it might be!

Date:

Astronomy

Mar. 31, 2012 Rise Set
Actual Time 7:15 AM CDT 8:06 PM CDT
Civil Twilight 6:44 AM CDT 8:38 PM CDT
Nautical Twilight 6:06 AM CDT 9:16 PM CDT
Astronomical Twilight 5:26 AM CDT 9:56 PM CDT
Moon 1:06 PM CDT (3/31) 3:44 AM CDT (3/31)
Length of Visible Light 13h 54m
Length of Day
12h 51m
First Quarter, 59% of the Moon is Illuminated
Mar 31
First Quarter
Apr 6
Full
Apr 13
Last Quarter
Apr 21
New
Apr 29
First Quarter

Hourly Weather History & Observations

Time (CDT) Temp. Windchill Dew Point Humidity Pressure Visibility Wind Dir Wind Speed Gust Speed Precip Events Conditions
12:15 AM 46.4 °F 39.2 °F 41.0 °F 81% 29.55 in 10.0 mi SSE 18.4 mph - N/A   Clear
12:35 AM 46.4 °F 39.2 °F 41.0 °F 81% 29.55 in 10.0 mi South 18.4 mph - N/A   Clear
12:55 AM 46.4 °F 39.2 °F 42.8 °F 87% 29.55 in 10.0 mi South 18.4 mph - N/A   Clear
1:15 AM 46.4 °F 39.2 °F 42.8 °F 87% 29.54 in 10.0 mi South 18.4 mph - N/A   Clear
1:35 AM 46.4 °F 38.7 °F 42.8 °F 87% 29.53 in 10.0 mi South 20.7 mph 26.5 mph N/A   Clear
1:55 AM 46.4 °F 38.5 °F 44.6 °F 93% 29.53 in 10.0 mi South 21.9 mph 28.8 mph N/A   Clear
2:15 AM 46.4 °F 39.0 °F 44.6 °F 93% 29.53 in 10.0 mi South 19.6 mph - N/A   Clear
2:35 AM 46.4 °F 39.0 °F 44.6 °F 93% 29.52 in 10.0 mi South 19.6 mph 25.3 mph N/A   Clear
2:55 AM 46.4 °F 39.0 °F 44.6 °F 93% 29.52 in 10.0 mi South 19.6 mph 24.2 mph N/A   Clear
3:15 AM 46.4 °F 39.8 °F 44.6 °F 93% 29.52 in 10.0 mi South 16.1 mph - N/A   Clear
3:35 AM 46.4 °F 39.8 °F 44.6 °F 93% 29.51 in 10.0 mi South 16.1 mph - N/A   Clear
3:55 AM 44.6 °F 37.4 °F 44.6 °F 100% 29.50 in 10.0 mi South 16.1 mph - N/A   Clear
4:15 AM 46.4 °F 40.7 °F 44.6 °F 93% 29.52 in 10.0 mi South 12.7 mph - N/A   Clear
4:35 AM 46.4 °F 41.5 °F 42.8 °F 87% 29.52 in 10.0 mi SSW 10.4 mph - N/A   Clear
4:55 AM 44.6 °F 41.4 °F 41.0 °F 87% 29.53 in 10.0 mi SW 5.8 mph - N/A   Clear
5:15 AM 42.8 °F 38.6 °F 41.0 °F 93% 29.54 in 10.0 mi SW 6.9 mph - N/A   Clear
5:35 AM 44.6 °F 40.2 °F 41.0 °F 87% 29.54 in 10.0 mi WSW 8.1 mph - N/A   Clear
5:55 AM 42.8 °F 38.6 °F 39.2 °F 87% 29.55 in 10.0 mi WSW 6.9 mph - N/A   Clear
6:15 AM 41.0 °F 36.4 °F 39.2 °F 93% 29.55 in 10.0 mi WSW 6.9 mph - N/A   Clear
6:35 AM 42.8 °F 37.5 °F 39.2 °F 87% 29.56 in 10.0 mi WSW 9.2 mph - N/A   Clear
6:55 AM 42.8 °F 37.0 °F 39.2 °F 87% 29.57 in 10.0 mi SW 10.4 mph - N/A   Clear
7:15 AM 42.8 °F 37.5 °F 39.2 °F 87% 29.58 in 10.0 mi WSW 9.2 mph - N/A   Clear
7:35 AM 42.8 °F 37.0 °F 39.2 °F 87% 29.59 in 10.0 mi WSW 10.4 mph - N/A   Clear
7:55 AM 42.8 °F 37.5 °F 39.2 °F 87% 29.60 in 10.0 mi WSW 9.2 mph - N/A   Clear
8:15 AM 42.8 °F 37.5 °F 39.2 °F 87% 29.61 in 10.0 mi WSW 9.2 mph - N/A   Clear
8:35 AM 44.6 °F 39.7 °F 39.2 °F 81% 29.61 in 10.0 mi WSW 9.2 mph - N/A   Clear
8:55 AM 46.4 °F 41.9 °F 39.2 °F 76% 29.62 in 10.0 mi WSW 9.2 mph - N/A   Clear
9:15 AM 46.4 °F 41.5 °F 41.0 °F 81% 29.62 in 10.0 mi West 10.4 mph - N/A   Clear
9:35 AM 48.2 °F - 41.0 °F 76% 29.63 in 10.0 mi West 11.5 mph - N/A   Clear
9:55 AM 50.0 °F - 39.2 °F 66% 29.63 in 10.0 mi WNW 15.0 mph 19.6 mph N/A   Clear
10:15 AM 50.0 °F - 39.2 °F 66% 29.63 in 10.0 mi WNW 15.0 mph - N/A   Clear
10:35 AM 50.0 °F - 39.2 °F 66% 29.64 in 10.0 mi WNW 13.8 mph - N/A   Clear
10:55 AM 51.8 °F - 39.2 °F 62% 29.64 in 10.0 mi WNW 15.0 mph - N/A   Clear
11:15 AM 53.6 °F - 39.2 °F 58% 29.65 in 10.0 mi WNW 13.8 mph - N/A   Clear
11:35 AM 55.4 °F - 41.0 °F 58% 29.65 in 10.0 mi WNW 13.8 mph - N/A   Clear
11:55 AM 57.2 °F - 41.0 °F 55% 29.65 in 10.0 mi WNW 13.8 mph 18.4 mph N/A   Clear
12:15 PM 57.2 °F - 41.0 °F 55% 29.65 in 10.0 mi WNW 16.1 mph - N/A   Clear
12:35 PM 59.0 °F - 39.2 °F 48% 29.65 in 10.0 mi NW 11.5 mph - N/A   Clear
12:55 PM 59.0 °F - 39.2 °F 48% 29.66 in 10.0 mi NW 10.4 mph - N/A   Clear
1:15 PM 59.0 °F - 37.4 °F 45% 29.66 in 10.0 mi WNW 5.8 mph - N/A   Clear
1:35 PM 59.0 °F - 37.4 °F 45% 29.65 in 10.0 mi WSW 6.9 mph - N/A   Clear
1:55 PM 60.8 °F - 39.2 °F 45% 29.66 in 10.0 mi West 8.1 mph - N/A   Clear
2:15 PM 60.8 °F - 37.4 °F 42% 29.65 in 10.0 mi SSW 3.5 mph - N/A   Clear
2:35 PM 62.6 °F - 39.2 °F 42% 29.65 in 10.0 mi West 6.9 mph - N/A   Clear
2:55 PM 62.6 °F - 37.4 °F 39% 29.65 in 10.0 mi West 9.2 mph - N/A   Clear
3:15 PM 62.6 °F - 37.4 °F 39% 29.65 in 10.0 mi West 6.9 mph - N/A   Clear
3:55 PM 62.6 °F - 37.4 °F 39% 29.65 in 10.0 mi WNW 8.1 mph 19.6 mph N/A   Clear
4:15 PM 62.6 °F - 35.6 °F 37% 29.64 in 10.0 mi West 10.4 mph - N/A   Clear
4:35 PM 64.4 °F - 35.6 °F 34% 29.64 in 10.0 mi WNW 15.0 mph - N/A   Clear
4:55 PM 62.6 °F - 35.6 °F 37% 29.65 in 10.0 mi West 13.8 mph 18.4 mph N/A   Clear
5:15 PM 62.6 °F - 35.6 °F 37% 29.64 in 10.0 mi WNW 12.7 mph - N/A   Clear
5:35 PM 62.6 °F - 35.6 °F 37% 29.64 in 10.0 mi WNW 11.5 mph - N/A   Clear
5:55 PM 62.6 °F - 35.6 °F 37% 29.64 in 10.0 mi West 10.4 mph - N/A   Clear
6:15 PM 62.6 °F - 35.6 °F 37% 29.64 in 10.0 mi WNW 10.4 mph 16.1 mph N/A   Clear
6:35 PM 62.6 °F - 35.6 °F 37% 29.64 in 10.0 mi West 11.5 mph 16.1 mph N/A   Clear
6:55 PM 59.0 °F - 37.4 °F 45% 29.64 in 10.0 mi West 8.1 mph - N/A   Clear
7:15 PM 59.0 °F - 39.2 °F 48% 29.64 in 10.0 mi West 5.8 mph - N/A   Clear
7:35 PM 59.0 °F - 39.2 °F 48% 29.65 in 10.0 mi West 4.6 mph - N/A   Clear
7:55 PM 57.2 °F - 41.0 °F 55% 29.64 in 10.0 mi West 4.6 mph - N/A   Clear
8:15 PM 53.6 °F - 39.2 °F 58% 29.65 in 10.0 mi West 4.6 mph - N/A   Clear
8:35 PM 53.6 °F - 39.2 °F 58% 29.66 in 10.0 mi West 4.6 mph - N/A   Clear
8:55 PM 53.6 °F - 39.2 °F 58% 29.65 in 10.0 mi WNW 3.5 mph - N/A   Clear
9:15 PM 50.0 °F - 44.6 °F 82% 29.66 in 10.0 mi Calm Calm - N/A   Clear
9:35 PM 50.0 °F - 41.0 °F 71% 29.65 in 10.0 mi Calm Calm - N/A   Clear
9:55 PM 48.2 °F - 44.6 °F 87% 29.65 in 10.0 mi ESE 3.5 mph - N/A   Partly Cloudy
10:15 PM 48.2 °F - 41.0 °F 76% 29.65 in 10.0 mi NE 5.8 mph - N/A   Mostly Cloudy
10:35 PM 51.8 °F - 39.2 °F 62% 29.65 in 10.0 mi NE 5.8 mph - N/A   Mostly Cloudy
10:55 PM 50.0 °F - 39.2 °F 66% 29.66 in 10.0 mi NE 5.8 mph - N/A   Overcast
11:15 PM 48.2 °F - 41.0 °F 76% 29.65 in 10.0 mi ENE 5.8 mph - N/A   Overcast
11:35 PM 50.0 °F - 41.0 °F 71% 29.64 in 10.0 mi East 8.1 mph - N/A   Overcast
11:55 PM 50.0 °F - 41.0 °F 71% 29.64 in 10.0 mi East 6.9 mph - N/A   Mostly Cloudy